Regional Weather Roundup
Issued by NWS Newport/Morehead, NC

Current Version | Previous Version | Text Only | Print | Product List | Glossary Off
Versions: 1 2 3 4 5 6 7 8 9 10 11 12 13 14 15 16 17 18 19 20 21 22 23 24 25 26 27 28 29 30 31 32 33 34 35 36 37 38 39 40 41 42 43 44 45 46 47 48 49 50
000 ASUS42 KMHX 281125 RWRMHX WEATHER ROUNDUP FOR EASTERN NORTH CAROLINA NATIONAL WEATHER SERVICE NEWPORT/MOREHEAD CITY NC 700 AM EDT TUE JUL 28 2015 NOTE: "FAIR" INDICATES FEW OR NO CLOUDS BELOW 12,000 FEET WITH NO SIGNIFICANT WEATHER AND/OR OBSTRUCTIONS TO VISIBILITY NCZ015>017-031-032-045>047-102-103-281200- NORTH COAST CITY SKY/WX TMP DP RH WIND PRES REMARKS EDENTON CLEAR 72 71 95 CALM 30.02S ELIZABETH CITY MOCLDY 73 72 96 W3 30.03R KITTY HAWK SUNNY 74 69 84 CALM 30.01S MANTEO CLEAR 73 71 93 CALM 30.03R $$ NCZ045>047-081-094-103-104-281200- CENTRAL COAST CITY SKY/WX TMP DP RH WIND PRES REMARKS FRISCO CLEAR 76 70 82 NE3 30.01R SWANQUARTER N/A 75 N/A N/A NE2 29.97S $$ NCZ095-097-098-100-101-281200- SOUTHERN COAST CITY SKY/WX TMP DP RH WIND PRES REMARKS BEAUFORT CLEAR 74 72 93 CALM 29.99S CEDAR ISLAND N/A 81 N/A N/A NE8 30.03S JACKSONVILLE CLEAR 76 71 85 E8 29.99S PINEY ISLAND SUNNY N/A N/A N/A E8 30.00R WILMINGTON CLEAR 72 70 93 NE5 29.98R $$ NCZ011>013-027>030-043-044-078>080-089-090>093-098-281200- COASTAL PLAIN CITY SKY/WX TMP DP RH WIND PRES REMARKS AHOSKIE CLEAR 68 67 97 CALM 30.02S CLINTON CLEAR 72 72 99 CALM 30.01R ELIZABETHTOWN CLEAR 72 72 100 CALM 30.01R FOG GOLDSBORO CLEAR 71 71 98 E2 29.99R GREENVILLE CLEAR 72 72 100 CALM 30.03S HAVELOCK CLEAR 74 70 87 CALM 30.01R KENANSVILLE CLEAR 69 68 96 CALM 30.01S KINSTON CLEAR 70 70 100 CALM 30.01S FOG NEW BERN CLEAR 71 69 93 CALM 30.01S FOG RICHLANDS CLEAR 72 66 83 MISG 30.01R ROCKY MOUNT CLEAR 70 69 97 CALM 30.02R FOG WASHINGTON CLEAR 71 70 97 CALM 30.02S WHITEVILLE CLEAR 71 70 96 CALM 29.98S FOG $$ AMZ130-135-150-152-154-156-158-170-250-252-270-ANZ085-086-088-633-658-670-281200- MARINE OBSERVATIONS STATION/POSITION TIME TEMP WIND PRES WAVE SWELL AIR SEA DIR/SP/G HT/PER HT/PER (UTC) (F) (DEG/KT/KT) (MB) (FT/S) (FT/S) CHESAPEAKE LIGHT 1100 79 200/ 6/ 7 1017.4 64 E VA BEACH 1050 80 80 140/ 2/ 4 1016.5 2/11 2/11 DUCK 1100 77 76 140/ 3/ 3 1015.8 2 E DUCK 1011 79 N/A 2/10 2/11 OREGON INLET 1100 79 81 70/ 4/ 5 1016.5 13E OREGON INLT 1100 78 N/A 2/11 2/11 HATTERAS CG 1100 79 82 80/ 3/ 5 1015.9 DIAMOND BUOY NOT AVBL CAPE LOOKOUT 1100 80 70/ 12/ 13 1015.3 BEAUFORT LAB 1100 77 81 50/ 3/ 5 1015.0 30 SE NEW RVR IN NOT AVBL 27 SE WRIGHTSVLE 1100 78 81 70/ 12/ 14 N/A 5 SE WRIGHTSVLE 1008 81 81 70/ 10/ 14 1014.6 225 S CAPE HAT 1050 81 82 250/ 21/ 25 1013.5 5/ 7 2/11 41 SE CHARLESTON 1050 82 84 30/ 14/ 16 1012.9 3/ 7 2/ 7 $$

USA.gov is the U.S. government's official web portal to all federal, state and local government web resources and services.